カタログに戻る

DCS-1

運用中通信SSO
NORAD 67263·PAYLOAD·🇷🇺 Russia

打ち上げ Dec 28, 2025 から Vostochny Cosmodrome

Loading…

次のパス (今後24時間)

TLE

最新Source: Space-Track

元期: Sep 14, 2026, 12:54 UTC

1 67263U 25313R   26257.53775946  .00006919  00000-0  28135-3 0  9993
2 67263  97.3878 331.0263 0015099  53.6633 306.5996 15.24747945 39565

AllMySatでDCS-1をリアルタイム追跡

Download on the App Store